RH
54 50 46 40 32 23 17 18 21 21 20 22 22 23 21 19 18 16 13 14 14 14 12 11 15 15 13 12 12 13 16 18 16 17 15 17 18 18 19 20 20 20 19 19 19
49 55 53 46 47 38 28 22 19 21 22 23 23 22 23 21 19 15 12 15 15 14 14 12 13 17 15 14 13 14 16 16 14 15 15 16 18 19 18 20 18 19 19 20 24
45 44 52 57 50 48 46 36 25 22 23 25 25 24 23 23 20 14 14 14 14 15 14 13 16 17 17 17 15 15 15 14 14 15 16 17 19 19 18 17 17 18 20 25 29
24 29 46 49 56 58 47 52 41 28 25 28 30 27 26 25 23 16 16 15 15 17 16 16 18 19 19 19 17 18 15 15 15 17 18 20 21 21 21 17 20 20 22 26 28
12 18 30 45 52 59 62 55 51 48 32 28 33 32 30 27 18 20 19 19 17 18 19 18 17 19 21 19 20 20 17 18 18 18 20 22 22 24 18 18 20 20 22 25 26
7 7 14 27 36 53 60 65 66 49 49 35 32 36 35 30 16 17 20 22 22 19 22 21 20 21 22 22 22 21 20 20 20 20 20 23 23 23 17 20 19 21 21 23 26
10 10 9 9 20 37 60 60 64 71 56 51 39 38 40 25 20 17 17 19 22 22 22 27 27 26 25 25 25 23 23 23 21 20 22 24 24 21 20 19 18 20 22 25 26
15 11 11 11 12 18 32 58 57 60 77 59 52 50 41 33 23 20 19 19 20 23 25 28 31 30 30 29 30 28 27 29 19 21 23 25 27 20 20 18 18 20 23 24 26
22 18 14 12 12 13 16 36 47 74 88 79 66 59 48 34 31 22 20 19 22 26 27 32 36 36 33 33 37 37 39 30 24 22 24 26 27 21 21 21 20 21 26 26 29
27 25 22 16 15 14 18 24 38 68 80 86 80 71 42 44 34 27 22 20 24 28 32 35 40 42 40 40 42 39 38 32 29 23 26 26 26 24 22 22 22 23 29 31 30
34 33 30 26 18 17 21 29 34 58 81 71 57 60 51 44 47 35 30 26 27 28 36 39 43 41 36 35 32 30 34 34 30 27 28 28 27 25 24 26 25 26 30 31 32
38 41 36 30 26 19 27 33 31 48 79 79 70 73 58 56 55 50 43 39 32 28 32 44 42 27 32 35 36 36 36 37 34 30 31 30 28 26 25 24 26 26 29 31 34
42 41 41 36 31 24 23 24 38 54 67 67 71 75 73 80 63 51 54 45 44 35 34 34 22 28 33 34 37 36 39 41 37 33 31 32 28 26 24 26 26 27 28 32 34
41 41 41 41 32 29 22 28 45 46 75 73 69 60 80 77 72 58 52 54 55 51 35 40 25 31 34 33 34 39 36 37 38 41 40 31 36 28 26 25 26 26 28 32 36
34 39 46 45 36 33 32 36 54 77 94 64 61 58 58 83 66 72 68 68 57 55 52 35 33 35 41 32 35 31 32 35 37 43 43 39 46 36 27 29 27 28 30 37 43
33 39 48 53 45 35 35 49 65 88 93 71 56 62 70 68 66 74 75 76 67 68 63 34 33 38 25 32 33 33 38 42 45 48 59 47 47 29 32 29 28 28 32 38 44
34 39 52 48 42 40 44 55 80 86 92 88 64 56 48 52 53 75 74 83 81 82 76 53 41 42 34 39 41 43 47 64 66 66 57 44 46 24 29 31 30 30 35 39 44
71 63 62 50 45 48 57 72 86 47 70 92 79 69 65 47 54 56 64 82 81 75 60 71 62 39 41 36 42 47 46 54 65 61 47 48 46 31 30 32 31 33 36 42 45
62 67 64 53 56 65 68 82 79 61 50 76 81 93 86 70 59 68 67 79 77 74 66 68 60 41 41 43 41 49 57 30 55 60 64 51 42 35 35 36 34 35 38 41 43
80 74 57 54 66 64 75 77 80 74 82 76 93 80 80 78 74 73 68 67 75 68 66 56 66 51 45 54 57 48 36 56 61 68 71 52 52 44 38 37 37 37 37 41 47
77 82 68 61 61 72 76 62 60 64 68 98 90 97 86 78 66 65 60 52 54 60 73 66 67 62 51 61 50 59 63 57 54 63 55 52 42 39 36 37 38 38 37 43 47
82 81 71 71 76 72 66 48 39 64 82 98 96 87 97 88 83 78 67 45 45 53 71 63 67 70 67 58 51 48 46 44 55 58 64 62 41 39 40 40 39 36 38 44 47
92 86 81 83 76 66 55 48 45 41 67 74 88 98 89 82 87 73 62 54 50 63 69 70 78 79 80 75 72 65 53 52 58 56 59 67 43 38 39 39 37 37 43 47 51
93 88 83 78 70 71 73 62 59 44 52 64 81 86 98 96 80 69 55 58 64 72 70 75 80 81 75 55 68 71 65 60 60 67 49 56 43 45 46 43 41 44 50 54 55
94 83 77 74 77 85 85 78 75 66 55 58 69 73 88 96 98 83 60 68 73 69 76 81 89 88 73 72 69 63 64 59 65 56 69 45 56 53 51 48 50 52 55 57 60
93 87 85 84 87 93 88 72 64 57 74 71 64 64 71 86 96 97 88 71 74 75 74 88 95 92 88 81 76 77 71 64 65 64 72 63 60 56 58 56 56 59 60 62 64
80 80 90 92 94 92 67 65 58 64 53 63 56 71 83 75 73 83 95 85 75 73 76 96 97 99 93 87 86 94 63 74 70 68 64 72 54 61 63 63 67 68 69 70 68